Weather in Asipovichy

Belarus     53°18′31″N   28°38′17″E
temp.,
°C
wind,
m/s
gust,
m/s
humid.,
%
clouds,
%
prec.,
mm/h
press.,
hPa
HPBL,
m
16 may, sun
sun1600:00+11wsw269761 0.0 1009127
03:00+10w249890 0.0 101089
06:00+10wsw229854 0.0 101162
09:00+15ssw238010 0.0 1011434
12:00+19s455830 0.0 10111525
15:00+21s344763 0.1 10101982
18:00+21sse2557100 0.0 10091485
21:00+16ese31079100 0.1 1009246
17 may, mon
mon1700:00+14se399397 0.4 1009224
03:00+12se3897100 1.2 1009162
06:00+12se2696100 0.3 1009138
09:00+16sse2586100 0.4 1009318
12:00+16se0187100 0.4 1008171
15:00+14wnw2394100 2.3 1007142
18:00+14nnw4895100 0.6 1005279
21:00+13n41295100 3.1 1003383
18 may, tue
tue1800:00+13n3998100 3.6 1001295
03:00+13n2599100 5.1 999240
06:00+13ene1399100 0.3 998159
09:00+14s2699100 2.6 998431
12:00+14ssw3797100 0.4 999497
15:00+15ssw379463 0.8 1001551
18:00+18sw2471100 0.1 1002754
21:00+14wsw0089100 0.2 100210
19 may, wed
wed1900:00+14nne2596100 0.1 1002150
03:00+13nne2699100 0.4 1002200
06:00+13nne2599100 0.3 1001188
09:00+13n2399100 1.1 1000175
12:00+13nw2499100 7.5 1000281
15:00+12nnw4898100 16.9 1000505
18:00+10nw51297100 7.5 1002774
21:00+9nw61496100 15.3 1004791
20 may, thu
thu2000:00+9wnw61495100 2.5 1004874
03:00+9wnw61396100 7.9 10051052
06:00+9w51295100 1.9 1005993
09:00+11wnw51190100 1.9 1006936
12:00+12wnw588217 0.4 10081071
15:00+16wnw575783 0.6 10091683
18:00+16nw376187 0.0 10091298
21:00+11w2283100 0.1 101116